Weather Roundup
Issued by NWS Springfield, MO

Home | Current Version | Previous Version | Text Only | Print | Product List | Glossary Off
Versions: 1 2 3 4 5 6 7 8 9 10 11 12 13 14 15 16 17 18 19 20 21 22 23 24 25 26 27 28 29 30 31 32 33 34 35 36 37 38 39 40 41 42 43 44 45 46 47 48 49 50

000
NZUS99 KSGF 161307
HRRSGF

HOURLY WEATHER
NATIONAL WEATHER SERVICE SPRINGFIELD MO
800 AM CDT TUE SEP 16 2014

......SGF CWA......

CITY           SKY/WX    TMP DP  RH WIND       PRES   REMARKS
SPRINGFIELD    CLOUDY    63  58  83 NE7       30.19R
JOPLIN         CLOUDY    59  57  93 N7        30.20S
WEST PLAINS    CLOUDY    62  56  80 NE6       30.20R
ROLLA          CLOUDY    55  54  96 NE9       30.20S FOG
OSAGE BEACH    CLOUDY    57  54  88 NE8       30.22S
BRANSON        CLOUDY    64  63  94 NE3       30.19R

......SURROUNDING SGF CWA......

CITY           SKY/WX    TMP DP  RH WIND       PRES   REMARKS
CHANUTE        CLOUDY    58  51  78 NE8       30.21S
PARSONS        CLOUDY    60  53  77 N6        30.22R
COFFEYVILLE    CLOUDY    60  55  83 N8        30.20S
EMPORIA        PTCLDY    48  48 100 N5        30.24S FOG
GROVE OK       CLOUDY    64  64 100 CALM      30.18S
ROGERS AR      CLOUDY    67  65  93 N3        30.19R FOG
SILOAM SPRINGS CLOUDY    70  64  83 CALM      30.18S
HARRISON AR    FOG       66  66 100 CALM      30.18S VSB 3/4
NEAR YELLVILLE CLOUDY    66  61  82 NE7       30.17S

......KANSAS AND MISSOURI......

CITY           SKY/WX    TMP DP  RH WIND       PRES   REMARKS
KANSAS CTY INT SUNNY     50  48  93 NE7       30.25S
DOWNTOWN KC    SUNNY     52  48  86 NE3       30.25R
COLUMBIA       CLOUDY    54  51  90 NE6       30.24R
SEDALIA        CLOUDY    57  51  80 NE7       30.24S
ST JOSEPH      MOSUNNY   43  43 100 CALM      30.26S
ST LOUIS       DRIZZLE   58  55  90 E6        30.23S FOG
SPIRIT OF STL  CLOUDY    58  55  90 E8        30.22R FOG
KIRKSVILLE     SUNNY     47  46  97 CALM      30.26F
WICHITA        CLOUDY    60  51  72 NE8       30.21S
TOPEKA         CLEAR     48  47  96 NW3       30.26R
OLATHE         SUNNY     50  48  93 NE6       30.24R

......TENNESSEE......

CITY           SKY/WX    TMP DP  RH WIND       PRES   REMARKS
MEMPHIS        MOSUNNY   71  65  81 N5        30.12R
NASHVILLE      PTSUNNY   69  64  84 VRB5      30.12S

......ARKANSAS.......

CITY           SKY/WX    TMP DP  RH WIND       PRES   REMARKS
FAYETTEVILLE   CLOUDY    66  66 100 CALM      30.17S FOG
FT SMITH       CLOUDY    69  67  93 CALM      30.14S FOG
LITTLE ROCK    MOSUNNY   74  68  81 N5        30.13S

......OKLAHOMA.......

CITY           SKY/WX    TMP DP  RH WIND       PRES   REMARKS
TULSA          CLOUDY    67  63  87 NE7       30.16R
PONCA CITY     CLOUDY    63  57  81 E12       30.19R
MCALESTER      CLOUDY    68  67  96 CALM      30.16S FOG
OKLAHOMA CITY  CLOUDY    70  66  87 NW6       30.16R FOG

......IOWA............

CITY           SKY/WX    TMP DP  RH WIND       PRES   REMARKS
DES MOINES     SUNNY     48  44  86 CALM      30.25S
QUAD CITIES    SUNNY     46  44  93 CALM      30.25R

......ILLINOIS........

CITY           SKY/WX    TMP DP  RH WIND       PRES   REMARKS
QUINCY         SUNNY     50  48  93 CALM      30.24S FOG
CHICAGO        MOSUNNY   48  43  82 N7        30.21R




USA.gov is the U.S. government's official web portal to all federal, state and local government web resources and services.